Location: Eexterzandvoort
(53.0303°N, 6.7884°E)
Time: 00:40:53
(UTC+00:00)

SL-24 R/B - Pass Details

Date: 19 May 2025
Orbit: 623 x 1072 km, 98.1° (Epoch: 15 June)

Event Time Altitude Azimuth Distance (km) Brightness Sun altitude
Rises 21:02:38 0° 18° (NNE) 2,924 8.1 -10.4°
Reaches altitude 10° 21:04:53 10° 25° (NNE) 2,009 7.1 -10.6°
Maximum altitude 21:09:04 48° 100° (E) 838 4.4 -10.9°
Enters shadow 21:12:51 13° 173° (S) 1,871 6.0 -11.2°
